This is the latest recevied weather packets stored in our database for station/object WL7CLI. If no packets are shown the sender has not sent any weather packets the latest 10 day(s).
| Time | Temp. | Humidity | Pressure | Rain* | Wind** | Luminosity | Snow |
|---|---|---|---|---|---|---|---|
| 1777939098 | 22.78° C | 30% | 1001.4 hPa | 0 mm | - | - | - |
| 1777938974 | 22.78° C | 30% | 1001.3 hPa | 0 mm | - | - | - |
| 1777937900 | 23.89° C | 29% | 1001.2 hPa | 0 mm | - | - | - |
| 1777937774 | 23.89° C | 29% | 1001.2 hPa | 0 mm | - | - | - |
| 1777937304 | 24.44° C | 29% | 1001.6 hPa | 0 mm | - | - | - |
| 1777936699 | 24.44° C | 29% | 1000.9 hPa | 0 mm | - | - | - |
| 1777936573 | 24.44° C | 30% | 1000.9 hPa | 0 mm | - | - | - |
| 1777935504 | 25° C | 28% | 1001.3 hPa | 0 mm | - | - | - |
| 1777935499 | 25° C | 28% | 1000.6 hPa | 0 mm | - | - | - |
| 1777935374 | 25° C | 28% | 1000.6 hPa | 0 mm | - | - | - |
| 1777934299 | 25.56° C | 28% | 1000.3 hPa | 0 mm | - | - | - |
| 1777934174 | 26.11° C | 28% | 1000.2 hPa | 0 mm | - | - | - |
| 1777933704 | 26.11° C | 29% | 1000.7 hPa | 0 mm | - | - | - |
| 1777933098 | 26.67° C | 28% | - | 0 mm | - | - | - |
| 1777932973 | 26.67° C | 30% | - | 0 mm | - | - | - |
| 1777931904 | 27.22° C | 29% | 1000.1 hPa | 0 mm | - | - | - |
| 1777931898 | 27.22° C | 29% | - | 0 mm | - | - | - |
| 1777931776 | 27.22° C | 30% | - | 0 mm | - | - | - |
| 1777930700 | 27.78° C | 30% | - | 0 mm | - | - | - |
| 1777930574 | 28.33° C | 32% | - | 0 mm | - | - | - |
| 1777930104 | 27.78° C | 30% | 999.9 hPa | 0 mm | - | - | - |
| 1777929498 | 27.78° C | 31% | - | 0 mm | - | - | - |
| 1777929374 | 27.78° C | 32% | - | 0 mm | - | - | - |
| 1777928304 | 28.33° C | 32% | 999.8 hPa | 0 mm | - | - | - |
| 1777928299 | 27.78° C | 32% | - | 0 mm | - | - | - |
* Rain latest hour (hover to see other rain measurements)
** Current wind speed in m/s (hover to see current wind gust speed)